SCP
-0 -0 -0 -1 -1 -0 -0 -0 -0 0 0 0 0 0 0 0 0 0 0 -0 -0 -0 -0 -0 -0 -0 -0 -0 0 0 0 0 0 0 0 0 0 0 0 0 0 0 0
-0 -0 -0 -1 -1 -0 0 0 0 0 0 0 0 0 0 0 0 0 0 -0 -0 -0 -0 0 0 0 0 0 0 0 0 0 0 0 0 0 0 0 0 0 0 0 0
0 -0 -0 -0 -0 -0 0 0 0 0 0 0 0 0 0 0 0 0 0 -0 0 0 0 0 0 0 0 0 0 0 0 0 0 0 0 0 0 0 0 0 0 0 0
0 0 0 0 -0 -0 0 0 0 0 0 0 0 0 0 0 0 0 -0 0 0 0 0 0 0 0 0 0 0 0 0 0 -0 0 0 0 0 0 0 0 0 0 0
0 0 0 0 0 -0 -0 -0 0 0 0 0 0 0 0 0 0 0 -0 0 0 0 0 0 0 0 0 0 0 0 0 0 -0 0 0 0 0 0 1 0 0 0 0
0 0 0 0 0 0 -0 -0 -0 -0 0 0 0 0 0 0 -0 -0 -0 0 0 0 0 0 0 0 0 0 0 0 0 0 -0 0 0 0 0 0 1 1 0 0 0
0 0 0 0 0 0 0 -0 -0 -0 -0 -0 0 0 0 0 -0 -0 -0 0 0 0 0 0 0 0 0 0 0 0 0 0 0 0 0 0 0 1 1 0 0 0 0
0 0 1 0 0 0 0 -0 -0 -0 -0 -0 -0 -0 0 0 0 -0 -0 -0 0 0 0 0 0 0 0 0 0 0 0 0 0 0 0 1 0 1 1 1 1 1 0
0 1 1 1 1 0 0 0 -0 -0 -0 -0 -0 -0 -0 -0 0 -0 -0 -0 0 0 0 0 0 0 0 0 0 0 0 0 0 0 0 0 1 1 1 1 1 1 1
0 2 1 1 0 0 0 0 -0 -0 -0 -0 -0 -0 -0 -0 -0 0 0 0 0 0 0 0 0 0 0 0 0 0 0 0 0 0 0 0 1 1 1 1 1 1 1
0 3 1 0 1 0 0 0 0 -0 0 -0 -0 -0 -0 -0 -0 0 0 0 0 0 0 0 0 0 0 0 0 0 0 0 0 0 0 1 2 1 1 1 1 1 1
0 0 1 0 0 1 0 0 0 0 0 -0 -0 -0 -0 -0 -0 -0 0 0 0 0 0 0 0 0 0 0 0 0 0 0 0 0 0 1 1 1 0 1 1 1 1
0 0 2 0 1 1 0 1 0 0 0 0 0 0 -0 -0 -0 0 0 0 0 0 0 0 0 0 0 0 0 0 0 0 0 0 0 1 1 1 0 1 1 1 1
0 1 1 1 1 1 1 1 1 0 0 0 0 0 0 0 0 0 0 0 0 0 0 0 0 0 0 0 0 0 0 0 0 0 1 2 1 1 1 1 1 1 1
0 1 2 2 2 1 4 3 1 0 0 0 0 0 0 0 0 0 0 0 1 0 0 0 0 0 0 0 0 0 0 0 0 0 0 2 1 1 1 1 1 1 1
0 0 1 6 7 5 8 12 12 1 0 1 1 1 1 1 1 1 1 1 0 1 0 0 0 0 0 0 0 0 0 0 1 1 1 1 1 1 1 1 1 1 1
0 0 1 2 5 5 4 6 10 12 4 2 1 1 1 1 2 2 2 1 0 0 0 0 0 1 0 1 0 0 1 1 1 1 1 1 1 1 1 1 1 1 1
0 0 0 1 3 4 3 7 6 8 5 5 3 3 2 2 3 4 2 1 1 1 1 0 0 0 0 0 0 0 1 1 1 2 2 2 1 1 1 1 1 1 1
0 0 0 1 3 4 4 2 6 4 4 3 1 3 3 4 2 3 3 2 1 1 1 2 1 0 0 1 0 1 2 3 2 2 2 3 3 2 1 0 0 1 1
0 0 0 1 2 6 4 5 1 2 2 1 1 1 2 3 3 3 3 3 2 1 1 1 0 0 0 0 1 1 3 3 3 3 3 4 2 2 1 0 0 1 1
0 0 1 1 1 4 7 4 5 4 4 2 2 1 1 3 3 5 3 2 3 2 1 1 0 1 0 0 1 3 2 3 3 4 5 4 3 2 1 1 1 1 1
0 0 0 2 2 1 6 7 3 7 9 1 0 0 1 2 3 3 2 1 1 2 1 1 1 0 0 1 2 4 4 2 3 5 5 3 3 2 1 2 2 2 2
0 0 0 0 1 2 1 1 4 7 13 5 1 1 1 0 1 3 3 1 2 1 1 2 1 1 0 1 1 4 5 3 6 6 4 3 2 3 2 2 2 2 2
0 0 0 0 0 0 1 1 2 1 2 1 0 2 1 0 1 2 2 2 3 -0 2 3 2 0 2 3 2 1 3 6 5 5 4 3 2 3 2 2 1 1 2
0 0 0 0 0 1 0 1 1 2 1 1 3 4 1 4 2 2 3 2 1 1 1 2 1 2 2 4 2 -0 3 5 4 4 3 2 4 2 1 2 1 2 2
0 0 0 0 1 1 1 1 1 1 2 1 2 4 4 3 4 4 3 4 4 4 3 3 3 6 4 3 1 0 6 9 5 5 3 2 2 3 2 2 3 1 2
Wind_Speed_500mb
14 34 37 36 41 46 45 40 35 34 32 32 32 32 32 35 36 34 30 25 23 21 18 17 15 16 16 15 15 14 15 15 17 19 19 18 14 10 8 10 11 4 9
20 33 40 35 40 45 45 41 38 36 35 35 34 35 35 36 35 32 28 25 23 20 18 15 14 15 15 16 16 16 18 18 18 17 21 24 24 11 5 4 3 2 5
18 31 41 38 40 46 47 45 41 39 38 36 37 35 35 35 32 30 27 24 22 20 18 16 14 13 13 13 14 14 15 18 23 30 28 21 25 19 11 3 1 2 3
12 28 40 42 39 46 49 48 44 42 40 38 37 35 33 32 30 27 25 22 21 19 18 16 13 12 11 11 11 10 12 16 19 22 21 18 24 19 15 9 2 3 1
18 23 41 46 41 49 52 52 49 45 41 40 39 35 33 31 28 25 22 19 17 16 15 14 12 9 8 6 7 8 9 12 16 20 18 7 9 19 17 10 4 3 1
17 18 45 47 45 53 56 54 51 47 43 42 40 36 33 31 28 24 21 17 14 12 10 9 7 6 5 4 3 4 4 6 13 16 10 14 18 18 20 12 9 7 4
33 27 47 51 51 55 60 58 55 50 46 42 39 36 34 30 27 23 20 15 12 10 8 6 4 3 2 2 2 3 3 1 5 6 5 24 24 20 22 17 10 7 6
39 39 39 53 56 55 61 62 58 54 49 45 41 38 35 31 28 23 19 15 12 9 7 6 6 6 7 8 9 9 9 8 7 9 7 20 31 29 28 21 16 11 9
42 45 41 53 60 58 60 60 60 55 52 48 44 40 37 34 29 25 20 16 13 11 10 11 13 12 12 15 16 17 17 17 15 15 12 25 31 35 33 25 22 18 14
42 43 44 46 63 64 63 63 60 58 54 50 47 44 40 36 31 27 22 19 16 15 15 16 18 19 19 19 23 24 26 26 24 18 20 31 35 38 35 32 27 24 21
36 46 40 43 64 67 65 66 63 59 56 53 49 47 44 39 35 31 26 24 22 22 21 21 23 24 26 27 28 28 27 33 37 20 22 30 37 38 41 38 32 28 26
28 44 37 29 61 61 59 65 63 61 59 57 53 50 46 41 37 33 31 30 27 28 28 28 29 29 31 32 34 22 27 36 32 15 23 43 45 44 47 46 37 32 30
20 33 43 35 42 49 47 55 61 64 62 60 57 54 49 44 36 27 27 30 28 33 35 34 34 31 29 26 22 21 30 31 30 26 25 43 49 49 49 50 43 36 32
14 20 27 37 40 42 42 46 49 60 61 62 60 56 53 48 38 30 26 30 23 21 23 23 28 21 26 27 21 19 33 30 33 39 37 39 46 50 52 52 47 40 34
13 17 28 34 45 46 50 43 39 39 57 55 58 59 57 50 45 36 35 26 30 28 25 20 22 21 30 36 33 29 31 32 37 42 42 48 48 50 53 53 50 43 40
18 19 22 37 45 47 60 48 50 42 40 42 41 49 51 55 46 43 43 43 36 32 26 28 34 32 34 34 40 35 35 35 39 40 41 43 44 47 48 46 44 48 44
25 23 32 36 46 51 53 59 35 37 43 45 41 44 48 45 52 44 49 44 39 36 39 43 45 48 44 49 42 35 34 39 44 44 37 39 45 47 44 43 41 43 47
26 27 32 42 40 43 51 68 65 51 53 41 44 44 53 56 50 54 54 52 39 36 37 44 47 45 47 37 37 30 30 43 44 42 41 41 40 37 41 42 42 37 41
37 33 31 41 49 41 43 26 51 70 59 63 48 42 60 61 59 53 60 51 47 49 47 50 44 39 47 48 41 33 43 46 39 38 38 43 45 47 35 47 33 37 31
34 34 29 35 53 52 51 44 37 25 48 55 63 60 54 56 59 59 56 50 47 54 58 61 54 51 57 54 38 34 40 47 46 46 44 43 41 45 43 31 42 33 35
19 25 24 27 35 58 49 57 73 65 43 48 68 73 66 61 67 66 54 41 55 58 65 62 55 59 52 48 36 53 48 45 41 45 48 47 41 43 41 32 34 35 37
22 29 27 23 26 25 52 58 66 79 63 59 41 56 59 68 78 63 55 43 52 57 66 60 60 55 59 46 59 46 32 39 37 40 44 46 36 40 40 34 41 40 42
19 30 29 32 25 34 26 32 67 74 73 84 63 48 52 53 85 76 81 89 54 59 74 61 57 57 73 54 78 62 19 20 22 17 29 35 31 35 41 43 43 44 39
25 24 19 34 36 26 58 29 32 35 80 89 97 75 68 68 71 75 80 68 67 88 60 65 64 58 66 73 61 79 61 49 27 15 17 25 27 37 42 42 31 26 34
22 22 19 19 17 20 34 71 36 40 36 46 35 92 70 68 75 77 81 80 82 83 93 92 84 92 58 55 63 82 67 51 34 34 43 25 22 28 27 27 35 37 38
30 27 21 23 14 18 22 36 71 51 43 42 48 39 61 63 62 74 70 82 91 96 93 95 97 90 61 57 86 72 67 58 43 32 39 42 39 39 36 36 37 32 33
Wind_Direction_500mb
168 146 143 148 149 148 148 149 150 145 138 137 133 129 134 133 138 139 136 135 128 123 118 109 103 97 96 92 87 83 76 71 68 70 68 62 69 87 94 95 69 60 11
184 152 146 150 152 151 151 152 151 148 142 138 135 134 133 136 138 137 136 132 128 123 115 109 101 94 91 87 82 79 73 71 68 72 68 65 40 59 71 103 103 298 4
194 161 150 152 156 153 154 154 152 148 145 142 140 140 140 139 138 136 135 134 130 124 117 111 100 89 81 75 74 81 85 82 83 73 58 50 353 27 33 32 269 316 26
219 174 159 154 161 158 157 156 155 153 152 149 147 146 143 142 141 140 140 139 134 128 122 113 100 86 74 67 71 78 85 88 87 84 82 66 302 338 9 23 26 245 252
235 195 169 156 166 162 161 160 160 159 159 156 153 152 151 150 149 149 147 143 138 133 126 118 113 104 91 68 59 65 83 93 98 89 86 213 299 296 330 351 13 43 295
218 209 172 163 168 166 165 165 166 166 167 164 162 160 162 160 157 158 156 153 151 144 136 135 134 131 123 114 66 43 56 99 110 102 70 280 247 271 305 316 346 344 356
198 224 175 171 168 172 170 170 171 172 175 174 172 171 173 169 167 169 168 168 172 171 171 176 180 207 249 324 334 323 310 228 165 83 208 291 281 276 299 290 301 305 321
191 210 189 179 170 177 175 175 176 179 181 183 183 182 183 182 180 181 182 186 195 208 220 241 260 269 290 301 302 297 287 272 194 153 296 276 289 285 295 283 279 278 286
187 207 207 190 176 179 181 183 182 186 189 190 191 192 192 192 191 193 197 207 221 236 256 273 280 284 292 297 296 294 290 280 271 248 225 278 273 280 289 292 275 270 270
182 198 209 201 185 181 186 189 192 192 195 199 198 198 200 201 203 204 210 220 234 248 264 274 281 286 288 290 292 293 293 291 288 267 254 260 274 278 290 293 275 267 264
188 196 210 213 198 185 192 193 196 199 202 204 207 206 206 209 210 214 220 228 239 248 258 266 273 280 282 286 290 297 305 316 301 286 290 277 283 275 285 291 275 265 258
202 181 202 217 201 191 195 201 200 203 206 208 211 212 212 214 222 228 232 241 245 255 260 265 270 276 283 291 295 286 315 323 334 295 277 276 279 278 283 288 277 262 255
238 192 205 219 213 198 183 211 206 209 210 213 215 217 217 220 221 234 250 251 258 261 261 265 272 282 291 294 288 285 294 301 317 318 296 283 287 284 285 289 277 259 251
257 235 194 205 210 212 189 218 222 218 216 217 218 220 222 221 221 215 250 252 270 289 276 273 285 282 304 306 299 248 250 257 256 261 263 277 283 284 286 288 273 259 249
208 238 218 200 199 208 190 207 234 231 225 223 225 224 225 225 219 216 215 235 254 280 307 297 303 296 289 292 295 291 280 269 267 262 263 265 270 282 287 291 276 258 252
223 239 196 207 194 197 200 202 192 225 227 226 229 234 235 232 227 219 228 230 213 226 257 275 274 276 274 273 267 275 281 287 288 286 273 275 277 282 286 291 289 262 254
220 227 215 199 221 230 231 218 204 185 196 215 223 233 249 243 230 225 235 243 239 230 229 227 238 253 264 268 265 273 272 288 300 299 293 285 284 279 286 290 293 273 256
213 219 212 215 217 237 230 212 218 207 206 196 216 219 239 244 241 228 234 244 247 247 248 244 246 253 261 267 289 293 289 288 298 297 298 290 292 289 283 287 291 289 264
222 224 223 216 209 222 223 167 209 225 221 217 216 219 232 244 249 243 240 246 242 244 245 249 259 253 264 262 279 288 276 282 293 292 279 282 287 290 280 269 289 277 279
224 230 221 211 199 209 217 216 230 237 231 237 236 223 229 245 253 248 242 249 243 246 254 256 264 269 256 258 275 273 275 279 291 293 284 278 280 280 274 281 263 274 281
216 236 218 216 209 211 220 232 230 235 250 258 243 230 228 229 244 251 254 255 246 256 255 267 267 265 253 262 264 271 274 273 287 286 281 271 277 269 273 273 275 278 279
230 234 230 211 217 222 218 223 230 232 234 255 259 241 241 233 242 244 253 273 263 268 270 270 265 259 258 271 267 270 266 277 274 281 279 270 272 263 261 266 260 276 276
224 253 239 235 218 212 221 230 238 234 232 236 252 276 269 255 243 251 263 269 273 282 274 269 265 265 260 264 269 247 242 244 253 304 279 254 264 252 251 253 256 268 272
227 235 242 252 247 228 234 219 219 234 230 236 244 256 271 274 255 249 246 254 255 271 266 261 265 277 270 264 264 260 256 254 271 301 252 254 254 242 250 254 250 261 272
221 225 232 250 242 229 224 230 245 239 242 231 240 230 259 254 263 254 252 253 260 254 267 265 274 273 267 263 261 263 252 251 256 256 271 276 247 259 248 253 239 256 263
234 230 236 240 221 237 230 236 231 244 233 231 222 219 227 238 251 254 252 249 242 252 258 270 264 256 260 255 268 246 244 239 251 246 257 263 260 263 239 252 256 260 260
Wind_Speed_850mb
14 34 37 36 41 46 45 40 35 34 32 32 32 32 32 35 36 34 30 25 23 21 18 17 15 16 16 15 15 14 15 15 17 19 19 18 14 10 8 10 11 4 9
20 33 40 35 40 45 45 41 38 36 35 35 34 35 35 36 35 32 28 25 23 20 18 15 14 15 15 16 16 16 18 18 18 17 21 24 24 11 5 4 3 2 5
18 31 41 38 40 46 47 45 41 39 38 36 37 35 35 35 32 30 27 24 22 20 18 16 14 13 13 13 14 14 15 18 23 30 28 21 25 19 11 3 1 2 3
12 28 40 42 39 46 49 48 44 42 40 38 37 35 33 32 30 27 25 22 21 19 18 16 13 12 11 11 11 10 12 16 19 22 21 18 24 19 15 9 2 3 1
18 23 41 46 41 49 52 52 49 45 41 40 39 35 33 31 28 25 22 19 17 16 15 14 12 9 8 6 7 8 9 12 16 20 18 7 9 19 17 10 4 3 1
17 18 45 47 45 53 56 54 51 47 43 42 40 36 33 31 28 24 21 17 14 12 10 9 7 6 5 4 3 4 4 6 13 16 10 14 18 18 20 12 9 7 4
33 27 47 51 51 55 60 58 55 50 46 42 39 36 34 30 27 23 20 15 12 10 8 6 4 3 2 2 2 3 3 1 5 6 5 24 24 20 22 17 10 7 6
39 39 39 53 56 55 61 62 58 54 49 45 41 38 35 31 28 23 19 15 12 9 7 6 6 6 7 8 9 9 9 8 7 9 7 20 31 29 28 21 16 11 9
42 45 41 53 60 58 60 60 60 55 52 48 44 40 37 34 29 25 20 16 13 11 10 11 13 12 12 15 16 17 17 17 15 15 12 25 31 35 33 25 22 18 14
42 43 44 46 63 64 63 63 60 58 54 50 47 44 40 36 31 27 22 19 16 15 15 16 18 19 19 19 23 24 26 26 24 18 20 31 35 38 35 32 27 24 21
36 46 40 43 64 67 65 66 63 59 56 53 49 47 44 39 35 31 26 24 22 22 21 21 23 24 26 27 28 28 27 33 37 20 22 30 37 38 41 38 32 28 26
28 44 37 29 61 61 59 65 63 61 59 57 53 50 46 41 37 33 31 30 27 28 28 28 29 29 31 32 34 22 27 36 32 15 23 43 45 44 47 46 37 32 30
20 33 43 35 42 49 47 55 61 64 62 60 57 54 49 44 36 27 27 30 28 33 35 34 34 31 29 26 22 21 30 31 30 26 25 43 49 49 49 50 43 36 32
14 20 27 37 40 42 42 46 49 60 61 62 60 56 53 48 38 30 26 30 23 21 23 23 28 21 26 27 21 19 33 30 33 39 37 39 46 50 52 52 47 40 34
13 17 28 34 45 46 50 43 39 39 57 55 58 59 57 50 45 36 35 26 30 28 25 20 22 21 30 36 33 29 31 32 37 42 42 48 48 50 53 53 50 43 40
18 19 22 37 45 47 60 48 50 42 40 42 41 49 51 55 46 43 43 43 36 32 26 28 34 32 34 34 40 35 35 35 39 40 41 43 44 47 48 46 44 48 44
25 23 32 36 46 51 53 59 35 37 43 45 41 44 48 45 52 44 49 44 39 36 39 43 45 48 44 49 42 35 34 39 44 44 37 39 45 47 44 43 41 43 47
26 27 32 42 40 43 51 68 65 51 53 41 44 44 53 56 50 54 54 52 39 36 37 44 47 45 47 37 37 30 30 43 44 42 41 41 40 37 41 42 42 37 41
37 33 31 41 49 41 43 26 51 70 59 63 48 42 60 61 59 53 60 51 47 49 47 50 44 39 47 48 41 33 43 46 39 38 38 43 45 47 35 47 33 37 31
34 34 29 35 53 52 51 44 37 25 48 55 63 60 54 56 59 59 56 50 47 54 58 61 54 51 57 54 38 34 40 47 46 46 44 43 41 45 43 31 42 33 35
19 25 24 27 35 58 49 57 73 65 43 48 68 73 66 61 67 66 54 41 55 58 65 62 55 59 52 48 36 53 48 45 41 45 48 47 41 43 41 32 34 35 37
22 29 27 23 26 25 52 58 66 79 63 59 41 56 59 68 78 63 55 43 52 57 66 60 60 55 59 46 59 46 32 39 37 40 44 46 36 40 40 34 41 40 42
19 30 29 32 25 34 26 32 67 74 73 84 63 48 52 53 85 76 81 89 54 59 74 61 57 57 73 54 78 62 19 20 22 17 29 35 31 35 41 43 43 44 39
25 24 19 34 36 26 58 29 32 35 80 89 97 75 68 68 71 75 80 68 67 88 60 65 64 58 66 73 61 79 61 49 27 15 17 25 27 37 42 42 31 26 34
22 22 19 19 17 20 34 71 36 40 36 46 35 92 70 68 75 77 81 80 82 83 93 92 84 92 58 55 63 82 67 51 34 34 43 25 22 28 27 27 35 37 38
30 27 21 23 14 18 22 36 71 51 43 42 48 39 61 63 62 74 70 82 91 96 93 95 97 90 61 57 86 72 67 58 43 32 39 42 39 39 36 36 37 32 33
Wind_Direction_850mb
168 146 143 148 149 148 148 149 150 145 138 137 133 129 134 133 138 139 136 135 128 123 118 109 103 97 96 92 87 83 76 71 68 70 68 62 69 87 94 95 69 60 11
184 152 146 150 152 151 151 152 151 148 142 138 135 134 133 136 138 137 136 132 128 123 115 109 101 94 91 87 82 79 73 71 68 72 68 65 40 59 71 103 103 298 4
194 161 150 152 156 153 154 154 152 148 145 142 140 140 140 139 138 136 135 134 130 124 117 111 100 89 81 75 74 81 85 82 83 73 58 50 353 27 33 32 269 316 26
219 174 159 154 161 158 157 156 155 153 152 149 147 146 143 142 141 140 140 139 134 128 122 113 100 86 74 67 71 78 85 88 87 84 82 66 302 338 9 23 26 245 252
235 195 169 156 166 162 161 160 160 159 159 156 153 152 151 150 149 149 147 143 138 133 126 118 113 104 91 68 59 65 83 93 98 89 86 213 299 296 330 351 13 43 295
218 209 172 163 168 166 165 165 166 166 167 164 162 160 162 160 157 158 156 153 151 144 136 135 134 131 123 114 66 43 56 99 110 102 70 280 247 271 305 316 346 344 356
198 224 175 171 168 172 170 170 171 172 175 174 172 171 173 169 167 169 168 168 172 171 171 176 180 207 249 324 334 323 310 228 165 83 208 291 281 276 299 290 301 305 321
191 210 189 179 170 177 175 175 176 179 181 183 183 182 183 182 180 181 182 186 195 208 220 241 260 269 290 301 302 297 287 272 194 153 296 276 289 285 295 283 279 278 286
187 207 207 190 176 179 181 183 182 186 189 190 191 192 192 192 191 193 197 207 221 236 256 273 280 284 292 297 296 294 290 280 271 248 225 278 273 280 289 292 275 270 270
182 198 209 201 185 181 186 189 192 192 195 199 198 198 200 201 203 204 210 220 234 248 264 274 281 286 288 290 292 293 293 291 288 267 254 260 274 278 290 293 275 267 264
188 196 210 213 198 185 192 193 196 199 202 204 207 206 206 209 210 214 220 228 239 248 258 266 273 280 282 286 290 297 305 316 301 286 290 277 283 275 285 291 275 265 258
202 181 202 217 201 191 195 201 200 203 206 208 211 212 212 214 222 228 232 241 245 255 260 265 270 276 283 291 295 286 315 323 334 295 277 276 279 278 283 288 277 262 255
238 192 205 219 213 198 183 211 206 209 210 213 215 217 217 220 221 234 250 251 258 261 261 265 272 282 291 294 288 285 294 301 317 318 296 283 287 284 285 289 277 259 251
257 235 194 205 210 212 189 218 222 218 216 217 218 220 222 221 221 215 250 252 270 289 276 273 285 282 304 306 299 248 250 257 256 261 263 277 283 284 286 288 273 259 249
208 238 218 200 199 208 190 207 234 231 225 223 225 224 225 225 219 216 215 235 254 280 307 297 303 296 289 292 295 291 280 269 267 262 263 265 270 282 287 291 276 258 252
223 239 196 207 194 197 200 202 192 225 227 226 229 234 235 232 227 219 228 230 213 226 257 275 274 276 274 273 267 275 281 287 288 286 273 275 277 282 286 291 289 262 254
220 227 215 199 221 230 231 218 204 185 196 215 223 233 249 243 230 225 235 243 239 230 229 227 238 253 264 268 265 273 272 288 300 299 293 285 284 279 286 290 293 273 256
213 219 212 215 217 237 230 212 218 207 206 196 216 219 239 244 241 228 234 244 247 247 248 244 246 253 261 267 289 293 289 288 298 297 298 290 292 289 283 287 291 289 264
222 224 223 216 209 222 223 167 209 225 221 217 216 219 232 244 249 243 240 246 242 244 245 249 259 253 264 262 279 288 276 282 293 292 279 282 287 290 280 269 289 277 279
224 230 221 211 199 209 217 216 230 237 231 237 236 223 229 245 253 248 242 249 243 246 254 256 264 269 256 258 275 273 275 279 291 293 284 278 280 280 274 281 263 274 281
216 236 218 216 209 211 220 232 230 235 250 258 243 230 228 229 244 251 254 255 246 256 255 267 267 265 253 262 264 271 274 273 287 286 281 271 277 269 273 273 275 278 279
230 234 230 211 217 222 218 223 230 232 234 255 259 241 241 233 242 244 253 273 263 268 270 270 265 259 258 271 267 270 266 277 274 281 279 270 272 263 261 266 260 276 276
224 253 239 235 218 212 221 230 238 234 232 236 252 276 269 255 243 251 263 269 273 282 274 269 265 265 260 264 269 247 242 244 253 304 279 254 264 252 251 253 256 268 272
227 235 242 252 247 228 234 219 219 234 230 236 244 256 271 274 255 249 246 254 255 271 266 261 265 277 270 264 264 260 256 254 271 301 252 254 254 242 250 254 250 261 272
221 225 232 250 242 229 224 230 245 239 242 231 240 230 259 254 263 254 252 253 260 254 267 265 274 273 267 263 261 263 252 251 256 256 271 276 247 259 248 253 239 256 263
234 230 236 240 221 237 230 236 231 244 233 231 222 219 227 238 251 254 252 249 242 252 258 270 264 256 260 255 268 246 244 239 251 246 257 263 260 263 239 252 256 260 260